RYR537R EGBB-LFOB

Flight info

Callsign RYR537R
Flight time 0h 54m
Altitude 25000
Route COWLY UL612 WOD/N0409F270 UM605 SFD/N0356F170 M605 PETAX J150 VELOL
Aircraft B738/M-SADFGHIJ7LP2RWXY/SB1D1G1

Departure

Time 2026-04-23 08:42
Airport Birmingham Airport (EGBB)

Arrival

Time 2026-04-23 09:36
Airport Beauvais-Tillé airport (LFOB)
Time Latitude Longitude Altitude Speed Heading
2026-04-23 07:56 52.45435 -1.73483 322 ft 0 kts 146°
2026-04-23 08:07 52.45435 -1.73484 295 ft 0 kts 143°
2026-04-23 08:32 52.45450 -1.73499 320 ft 1 kts 146°
2026-04-23 08:32 52.45471 -1.73519 319 ft 4 kts 165°
2026-04-23 08:32 52.45496 -1.73520 322 ft 4 kts 205°
2026-04-23 08:33 52.45509 -1.73504 320 ft 3 kts 236°
2026-04-23 08:33 52.45500 -1.73525 319 ft 0 kts 236°
2026-04-23 08:37 52.45498 -1.73531 322 ft 3 kts 236°
2026-04-23 08:37 52.45471 -1.73597 322 ft 10 kts 236°
2026-04-23 08:37 52.45423 -1.73712 322 ft 13 kts 236°
2026-04-23 08:37 52.45373 -1.73833 322 ft 13 kts 236°
2026-04-23 08:38 52.45324 -1.73952 322 ft 12 kts 236°
2026-04-23 08:38 52.45324 -1.74082 322 ft 13 kts 298°
2026-04-23 08:38 52.45369 -1.74227 322 ft 16 kts 296°
2026-04-23 08:38 52.45425 -1.74410 322 ft 19 kts 296°
2026-04-23 08:39 52.45496 -1.74597 322 ft 19 kts 322°
2026-04-23 08:39 52.45609 -1.74722 318 ft 21 kts 326°
2026-04-23 08:39 52.45736 -1.74863 309 ft 23 kts 326°
2026-04-23 08:39 52.45872 -1.75014 307 ft 24 kts 326°
2026-04-23 08:40 52.46005 -1.75161 304 ft 23 kts 326°
2026-04-23 08:40 52.46133 -1.75304 302 ft 22 kts 324°
2026-04-23 08:40 52.46214 -1.75443 303 ft 14 kts 268°
2026-04-23 08:40 52.46168 -1.75580 310 ft 14 kts 237°
2026-04-23 08:41 52.46091 -1.75584 310 ft 15 kts 145°
2026-04-23 08:41 52.45899 -1.75371 316 ft 66 kts 146°
2026-04-23 08:41 52.45326 -1.74737 322 ft 131 kts 146°
2026-04-23 08:41 52.44443 -1.73790 597 ft 159 kts 144°
2026-04-23 08:42 52.43548 -1.72823 1586 ft 152 kts 142°
2026-04-23 08:42 52.42628 -1.71803 2167 ft 174 kts 141°
2026-04-23 08:42 52.41565 -1.70584 2654 ft 193 kts 144°
2026-04-23 08:42 52.40300 -1.69774 3364 ft 200 kts 164°
2026-04-23 08:43 52.38920 -1.69235 4102 ft 206 kts 163°
2026-04-23 08:43 52.37563 -1.68544 4995 ft 204 kts 153°
2026-04-23 08:43 52.36297 -1.67479 5802 ft 206 kts 152°
2026-04-23 08:43 52.35016 -1.66376 6544 ft 212 kts 148°
2026-04-23 08:44 52.33685 -1.65011 6844 ft 241 kts 146°
2026-04-23 08:44 52.32223 -1.63463 7347 ft 256 kts 147°
2026-04-23 08:44 52.30703 -1.61866 8085 ft 262 kts 147°
2026-04-23 08:44 52.29150 -1.60251 8913 ft 266 kts 147°
2026-04-23 08:45 52.27570 -1.58618 9738 ft 271 kts 148°
2026-04-23 08:45 52.25967 -1.56966 10566 ft 274 kts 148°
2026-04-23 08:45 52.24286 -1.55451 11331 ft 278 kts 153°
2026-04-23 08:45 52.22525 -1.54075 12121 ft 283 kts 154°
2026-04-23 08:46 52.20738 -1.52692 13011 ft 286 kts 154°
2026-04-23 08:46 52.18930 -1.51284 13872 ft 290 kts 154°
2026-04-23 08:46 52.17101 -1.49847 14682 ft 295 kts 154°
2026-04-23 08:46 52.15239 -1.48379 15423 ft 300 kts 154°
2026-04-23 08:47 52.13338 -1.46877 16115 ft 307 kts 153°
2026-04-23 08:47 52.11403 -1.45348 16844 ft 312 kts 153°
2026-04-23 08:47 52.09450 -1.43807 17724 ft 312 kts 153°
2026-04-23 08:47 52.07478 -1.42253 18441 ft 319 kts 153°
2026-04-23 08:48 52.05483 -1.40680 19034 ft 326 kts 152°
2026-04-23 08:48 52.03422 -1.39057 19643 ft 332 kts 152°
2026-04-23 08:48 52.01287 -1.37375 19844 ft 352 kts 152°
2026-04-23 08:48 51.99018 -1.35590 19994 ft 372 kts 153°
2026-04-23 08:49 51.96632 -1.33717 20223 ft 388 kts 152°
2026-04-23 08:49 51.94172 -1.31790 20754 ft 395 kts 152°
2026-04-23 08:49 51.91685 -1.29847 21363 ft 399 kts 152°
2026-04-23 08:49 51.89163 -1.27877 21893 ft 406 kts 152°
2026-04-23 08:50 51.86605 -1.25882 22464 ft 410 kts 152°
2026-04-23 08:50 51.84023 -1.23870 23083 ft 414 kts 153°
2026-04-23 08:50 51.81423 -1.21845 23667 ft 418 kts 153°
2026-04-23 08:50 51.78794 -1.19801 24242 ft 421 kts 153°
2026-04-23 08:51 51.76149 -1.17747 24800 ft 422 kts 153°
2026-04-23 08:51 51.73502 -1.15695 25333 ft 423 kts 153°
2026-04-23 08:51 51.70848 -1.13639 25437 ft 422 kts 153°
2026-04-23 08:51 51.68209 -1.11597 25447 ft 420 kts 153°
2026-04-23 08:52 51.65573 -1.09560 25459 ft 420 kts 153°
2026-04-23 08:52 51.62935 -1.07524 25465 ft 421 kts 153°
2026-04-23 08:52 51.60344 -1.05343 25456 ft 420 kts 146°
2026-04-23 08:52 51.57935 -1.02697 25468 ft 419 kts 141°
2026-04-23 08:53 51.55606 -0.99894 25458 ft 419 kts 141°
2026-04-23 08:53 51.53276 -0.97074 25454 ft 420 kts 141°
2026-04-23 08:53 51.50921 -0.94301 25472 ft 420 kts 142°
2026-04-23 08:53 51.48544 -0.91574 25458 ft 420 kts 142°
2026-04-23 08:54 51.46160 -0.88871 25455 ft 419 kts 142°
2026-04-23 08:54 51.43862 -0.86017 25453 ft 417 kts 136°
2026-04-23 08:54 51.41710 -0.82918 25460 ft 415 kts 134°
2026-04-23 08:54 51.39660 -0.79850 25455 ft 415 kts 134°
2026-04-23 08:55 51.37561 -0.76683 25459 ft 414 kts 134°
2026-04-23 08:55 51.35459 -0.73527 25462 ft 414 kts 134°
2026-04-23 08:55 51.33351 -0.70387 25467 ft 414 kts 134°
2026-04-23 08:55 51.31233 -0.67257 25454 ft 415 kts 134°
2026-04-23 08:56 51.29108 -0.64134 25456 ft 416 kts 135°
2026-04-23 08:56 51.26974 -0.61011 25458 ft 416 kts 135°
2026-04-23 08:56 51.24834 -0.57886 25456 ft 417 kts 135°
2026-04-23 08:56 51.22687 -0.54758 25453 ft 418 kts 135°
2026-04-23 08:57 51.20541 -0.51636 25449 ft 419 kts 135°
2026-04-23 08:57 51.18388 -0.48507 25449 ft 419 kts 135°
2026-04-23 08:57 51.16233 -0.45380 25448 ft 419 kts 135°
2026-04-23 08:57 51.14106 -0.42296 25447 ft 419 kts 135°
2026-04-23 08:58 51.11950 -0.39175 25451 ft 419 kts 135°
2026-04-23 08:58 51.09796 -0.36060 25454 ft 418 kts 135°
2026-04-23 08:58 51.07642 -0.32950 25452 ft 418 kts 135°
2026-04-23 08:58 51.05487 -0.29843 25452 ft 418 kts 135°
2026-04-23 08:59 51.03335 -0.26743 25453 ft 418 kts 135°
2026-04-23 08:59 51.01187 -0.23653 25449 ft 417 kts 135°
2026-04-23 08:59 50.99035 -0.20561 25447 ft 417 kts 135°
2026-04-23 08:59 50.96883 -0.17474 25426 ft 417 kts 135°
2026-04-23 09:00 50.94731 -0.14390 25426 ft 417 kts 135°
2026-04-23 09:00 50.92578 -0.11309 25427 ft 417 kts 135°
2026-04-23 09:00 50.90424 -0.08230 25429 ft 417 kts 135°
2026-04-23 09:00 50.88267 -0.05152 25428 ft 417 kts 135°
2026-04-23 09:01 50.86110 -0.02077 25425 ft 418 kts 135°
2026-04-23 09:01 50.83949 0.01000 25432 ft 418 kts 135°
2026-04-23 09:01 50.81787 0.04075 25421 ft 418 kts 135°
2026-04-23 09:01 50.79625 0.07147 25423 ft 418 kts 135°
2026-04-23 09:02 50.77469 0.10206 25412 ft 417 kts 135°
2026-04-23 09:02 50.75303 0.13258 25410 ft 417 kts 136°
2026-04-23 09:02 50.73072 0.16195 25414 ft 418 kts 138°
2026-04-23 09:02 50.70805 0.19058 25413 ft 417 kts 138°
2026-04-23 09:03 50.68533 0.21906 25410 ft 417 kts 138°
2026-04-23 09:03 50.66269 0.24761 25405 ft 417 kts 138°
2026-04-23 09:03 50.64012 0.27626 25412 ft 417 kts 138°
2026-04-23 09:03 50.61756 0.30504 25404 ft 418 kts 138°
2026-04-23 09:04 50.59496 0.33386 25414 ft 418 kts 138°
2026-04-23 09:04 50.57230 0.36270 25416 ft 419 kts 138°
2026-04-23 09:04 50.54981 0.39126 25349 ft 411 kts 138°
2026-04-23 09:04 50.52767 0.41933 25032 ft 406 kts 138°
2026-04-23 09:05 50.50607 0.44673 24639 ft 403 kts 138°
2026-04-23 09:05 50.48432 0.47428 24277 ft 400 kts 137°
2026-04-23 09:05 50.46270 0.50219 23446 ft 406 kts 136°
2026-04-23 09:05 50.44121 0.53043 22926 ft 403 kts 136°
2026-04-23 09:06 50.41988 0.55857 22454 ft 398 kts 136°
2026-04-23 09:06 50.39877 0.58639 22008 ft 394 kts 136°
2026-04-23 09:06 50.37787 0.61387 21580 ft 390 kts 136°
2026-04-23 09:06 50.35717 0.64101 21147 ft 386 kts 136°
2026-04-23 09:07 50.34328 0.65919 20870 ft 383 kts 136°
2026-04-23 09:07 50.32291 0.68581 20445 ft 380 kts 136°
2026-04-23 09:07 50.30272 0.71215 20032 ft 376 kts 136°
2026-04-23 09:07 50.28270 0.73822 19621 ft 373 kts 136°
2026-04-23 09:08 50.26285 0.76405 19215 ft 370 kts 136°
2026-04-23 09:08 50.24345 0.78925 18814 ft 367 kts 136°
2026-04-23 09:08 50.22364 0.81497 18363 ft 364 kts 136°
2026-04-23 09:08 50.20450 0.83979 17918 ft 361 kts 136°
2026-04-23 09:09 50.18503 0.86501 17498 ft 357 kts 136°
2026-04-23 09:09 50.16625 0.88930 17091 ft 354 kts 136°
2026-04-23 09:09 50.14741 0.91365 16695 ft 350 kts 136°
2026-04-23 09:09 50.12874 0.93776 16300 ft 347 kts 136°
2026-04-23 09:10 50.11023 0.96163 15917 ft 344 kts 136°
2026-04-23 09:10 50.07365 1.00873 15139 ft 338 kts 136°
2026-04-23 09:10 50.05556 1.03199 14757 ft 336 kts 136°
2026-04-23 09:11 50.03760 1.05507 14373 ft 334 kts 136°
2026-04-23 09:11 50.01975 1.07799 13961 ft 332 kts 136°
2026-04-23 09:11 50.00279 1.10238 13305 ft 333 kts 130°
2026-04-23 09:11 49.98709 1.12858 12852 ft 331 kts 128°
2026-04-23 09:12 49.97178 1.15503 12449 ft 327 kts 128°
2026-04-23 09:12 49.95664 1.18124 12060 ft 324 kts 128°
2026-04-23 09:12 49.94166 1.20695 11672 ft 316 kts 129°
2026-04-23 09:12 49.92705 1.23180 11298 ft 307 kts 129°
2026-04-23 09:13 49.91284 1.25584 10939 ft 298 kts 129°
2026-04-23 09:13 49.89899 1.27915 10657 ft 288 kts 129°
2026-04-23 09:13 49.88558 1.30164 10276 ft 282 kts 130°
2026-04-23 09:13 49.87253 1.32351 10038 ft 271 kts 130°
2026-04-23 09:14 49.85996 1.34452 9750 ft 262 kts 130°
2026-04-23 09:14 49.84773 1.36495 9422 ft 256 kts 129°
2026-04-23 09:14 49.83535 1.38566 8806 ft 267 kts 129°
2026-04-23 09:14 49.82264 1.40689 8438 ft 269 kts 130°
2026-04-23 09:15 49.80994 1.42806 8153 ft 267 kts 130°
2026-04-23 09:15 49.79735 1.44900 7859 ft 266 kts 130°
2026-04-23 09:15 49.78479 1.46991 7597 ft 264 kts 130°
2026-04-23 09:15 49.77230 1.49064 7332 ft 263 kts 130°
2026-04-23 09:16 49.75986 1.51126 7060 ft 262 kts 130°
2026-04-23 09:16 49.74748 1.53178 6812 ft 260 kts 130°
2026-04-23 09:16 49.73515 1.55218 6551 ft 259 kts 130°
2026-04-23 09:16 49.72312 1.57212 6314 ft 256 kts 130°
2026-04-23 09:17 49.71087 1.59237 6045 ft 254 kts 130°
2026-04-23 09:17 49.69904 1.61195 5792 ft 252 kts 130°
2026-04-23 09:17 49.68705 1.63170 5525 ft 251 kts 130°
2026-04-23 09:17 49.67517 1.65133 5276 ft 249 kts 130°
2026-04-23 09:18 49.66335 1.67082 5025 ft 248 kts 130°
2026-04-23 09:18 49.65163 1.69012 4780 ft 245 kts 130°
2026-04-23 09:18 49.64002 1.70925 4525 ft 244 kts 130°
2026-04-23 09:18 49.62844 1.72826 4354 ft 239 kts 130°
2026-04-23 09:19 49.61733 1.74656 4287 ft 230 kts 130°
2026-04-23 09:19 49.60698 1.76457 4220 ft 219 kts 126°
2026-04-23 09:19 49.59810 1.78305 4164 ft 210 kts 122°
2026-04-23 09:19 49.58995 1.80136 4063 ft 204 kts 121°
2026-04-23 09:20 49.58219 1.81903 4029 ft 193 kts 121°
2026-04-23 09:20 49.57493 1.83566 3979 ft 182 kts 120°
2026-04-23 09:20 49.56805 1.85150 3843 ft 174 kts 120°
2026-04-23 09:20 49.56131 1.86698 3569 ft 174 kts 120°
2026-04-23 09:21 49.55463 1.88230 3398 ft 170 kts 120°
2026-04-23 09:21 49.54828 1.89685 3343 ft 159 kts 120°
2026-04-23 09:21 49.54229 1.91056 3285 ft 148 kts 120°
2026-04-23 09:21 49.53665 1.92372 3153 ft 148 kts 119°
2026-04-23 09:22 49.53096 1.93689 2985 ft 148 kts 121°
2026-04-23 09:22 49.52516 1.95034 2800 ft 152 kts 119°
2026-04-23 09:22 49.51930 1.96400 2586 ft 153 kts 120°
2026-04-23 09:22 49.51317 1.97758 2376 ft 156 kts 120°
2026-04-23 09:23 49.50706 1.99153 2152 ft 158 kts 120°
2026-04-23 09:23 49.50108 2.00524 1943 ft 150 kts 119°
2026-04-23 09:23 49.49534 2.01850 1753 ft 147 kts 119°
2026-04-23 09:23 49.48983 2.03117 1566 ft 136 kts 118°
2026-04-23 09:24 49.48477 2.04280 1364 ft 130 kts 118°
2026-04-23 09:24 49.47974 2.05454 1133 ft 137 kts 119°
2026-04-23 09:24 49.47436 2.06678 957 ft 136 kts 120°
2026-04-23 09:24 49.46916 2.07873 795 ft 133 kts 118°
2026-04-23 09:25 49.46406 2.09062 568 ft 134 kts 120°
2026-04-23 09:25 49.45869 2.10263 1062 ft 138 kts 122°
2026-04-23 09:25 49.45354 2.11692 2000 ft 161 kts 103°
2026-04-23 09:25 49.45182 2.13426 2999 ft 174 kts 96°
2026-04-23 09:26 49.45045 2.15316 2995 ft 182 kts 94°
2026-04-23 09:26 49.45063 2.17319 3003 ft 192 kts 83°
2026-04-23 09:26 49.45422 2.19313 2986 ft 197 kts 69°
2026-04-23 09:26 49.46025 2.21213 3003 ft 199 kts 65°
2026-04-23 09:27 49.46692 2.23064 2992 ft 198 kts 57°
2026-04-23 09:27 49.47811 2.24296 3010 ft 206 kts 21°
2026-04-23 09:27 49.49271 2.24268 2991 ft 220 kts 346°
2026-04-23 09:27 49.50556 2.22909 3013 ft 234 kts 316°
2026-04-23 09:28 49.51611 2.20972 3025 ft 237 kts 312°
2026-04-23 09:28 49.52618 2.18909 3000 ft 245 kts 307°
2026-04-23 09:28 49.53561 2.16757 2998 ft 239 kts 307°
2026-04-23 09:28 49.54469 2.14638 2970 ft 235 kts 306°
2026-04-23 09:29 49.55363 2.12543 2999 ft 236 kts 307°
2026-04-23 09:29 49.56267 2.10427 3009 ft 236 kts 307°
2026-04-23 09:29 49.57166 2.08303 2986 ft 235 kts 307°
2026-04-23 09:29 49.58052 2.06235 2995 ft 235 kts 307°
2026-04-23 09:30 49.58939 2.04082 2984 ft 235 kts 298°
2026-04-23 09:30 49.59232 2.01650 3010 ft 230 kts 261°
2026-04-23 09:30 49.58874 1.99316 2994 ft 220 kts 251°
2026-04-23 09:30 49.58464 1.97120 2982 ft 213 kts 251°
2026-04-23 09:31 49.58045 1.94966 2979 ft 206 kts 242°
2026-04-23 09:31 49.57186 1.93259 2986 ft 198 kts 218°
2026-04-23 09:31 49.56150 1.91987 2961 ft 182 kts 194°
2026-04-23 09:31 49.55000 1.91826 3017 ft 161 kts 163°
2026-04-23 09:32 49.53898 1.92201 2984 ft 161 kts 147°
2026-04-23 09:32 49.53247 1.93413 3010 ft 147 kts 108°
2026-04-23 09:32 49.52656 1.94762 2831 ft 153 kts 131°
2026-04-23 09:32 49.51989 1.96062 2614 ft 154 kts 115°
2026-04-23 09:33 49.51425 1.97481 2406 ft 156 kts 118°
2026-04-23 09:33 49.50821 1.98890 2190 ft 159 kts 119°
2026-04-23 09:33 49.50224 2.00287 1969 ft 150 kts 120°
2026-04-23 09:33 49.49660 2.01561 1787 ft 140 kts 118°
2026-04-23 09:34 49.49140 2.02753 1598 ft 129 kts 117°
2026-04-23 09:34 49.48653 2.03879 1423 ft 127 kts 118°
2026-04-23 09:34 49.48147 2.05038 1256 ft 133 kts 119°
2026-04-23 09:34 49.47620 2.06257 1043 ft 141 kts 119°
2026-04-23 09:35 49.47084 2.07482 885 ft 136 kts 119°
2026-04-23 09:35 49.46577 2.08679 684 ft 133 kts 120°
2026-04-23 09:35 49.46052 2.09878 493 ft 135 kts 120°
2026-04-23 09:35 49.45547 2.11046 354 ft 125 kts 124°
2026-04-23 09:36 49.45173 2.11903 336 ft 69 kts 124°
2026-04-23 09:36 49.45011 2.12299 328 ft 22 kts 112°
2026-04-23 09:36 49.44983 2.12340 324 ft 2 kts 252°
2026-04-23 09:36 49.45008 2.12278 328 ft 14 kts 306°
2026-04-23 09:37 49.45070 2.12137 331 ft 18 kts 304°
2026-04-23 09:37 49.45149 2.11955 335 ft 23 kts 304°
2026-04-23 09:37 49.45246 2.11733 332 ft 28 kts 303°
2026-04-23 09:37 49.45355 2.11474 335 ft 26 kts 304°
2026-04-23 09:38 49.45446 2.11303 336 ft 13 kts 348°
2026-04-23 09:38 49.45518 2.11385 341 ft 13 kts 41°
2026-04-23 09:38 49.45585 2.11475 351 ft 13 kts 41°
2026-04-23 09:38 49.45650 2.11564 348 ft 12 kts 41°
2026-04-23 09:39 49.45721 2.11617 346 ft 12 kts 342°
2026-04-23 09:39 49.45780 2.11528 346 ft 12 kts 313°
2026-04-23 09:39 49.45783 2.11419 349 ft 11 kts 229°
2026-04-23 09:39 49.45724 2.11339 349 ft 11 kts 221°
2026-04-23 09:40 49.45704 2.11237 349 ft 11 kts 298°
2026-04-23 09:40 49.45744 2.11185 349 ft 7 kts 10°
2026-04-23 09:40 49.45758 2.11197 348 ft 0 kts 34°
2026-04-23 09:41 49.45760 2.11199 348 ft 2 kts 34°
2026-04-23 09:41 49.45782 2.11222 350 ft 4 kts 33°
2026-04-23 09:42 49.45783 2.11223 350 ft 0 kts 33°